BAW421 EGLL-EHAM

Flight info

Callsign BAW421
Flight time 0h 45m
Altitude 27000
Route BPK Q295 BRAIN M197 REDFA
Aircraft A320/M-SDE3FGHIRWY/LB1

Departure

Time 2026-05-07 18:00
Airport London Heathrow Airport (EGLL)

Arrival

Time 2026-05-07 18:45
Airport Amsterdam Airport Schiphol (EHAM)
Time Latitude Longitude Altitude Speed Heading
2026-05-07 17:26 51.46931 -0.48573 86 ft 0 kts 360°
2026-05-07 17:49 51.46907 -0.48573 88 ft 4 kts 360°
2026-05-07 17:49 51.46887 -0.48572 86 ft 4 kts 337°
2026-05-07 17:49 51.46877 -0.48553 89 ft 2 kts 270°
2026-05-07 17:50 51.46877 -0.48581 90 ft 1 kts 270°
2026-05-07 17:50 51.46877 -0.48582 90 ft 0 kts 270°
2026-05-07 17:53 51.46877 -0.48593 88 ft 3 kts 270°
2026-05-07 17:53 51.46877 -0.48683 86 ft 8 kts 269°
2026-05-07 17:54 51.46867 -0.48739 87 ft 9 kts 233°
2026-05-07 17:54 51.46806 -0.48750 87 ft 11 kts 178°
2026-05-07 17:54 51.46682 -0.48747 86 ft 16 kts 180°
2026-05-07 17:54 51.46600 -0.48768 90 ft 7 kts 196°
2026-05-07 17:55 51.46592 -0.48772 88 ft 0 kts 198°
2026-05-07 17:55 51.46589 -0.48774 88 ft 2 kts 198°
2026-05-07 17:56 51.46546 -0.48789 87 ft 9 kts 183°
2026-05-07 17:56 51.46486 -0.48735 87 ft 11 kts 122°
2026-05-07 17:56 51.46478 -0.48643 86 ft 0 kts 88°
2026-05-07 17:59 51.46480 -0.48528 86 ft 39 kts 89°
2026-05-07 17:59 51.46481 -0.47723 87 ft 102 kts 90°
2026-05-07 17:59 51.46486 -0.46324 90 ft 147 kts 90°
2026-05-07 17:59 51.46499 -0.44508 329 ft 168 kts 91°
2026-05-07 18:00 51.46521 -0.42629 1031 ft 169 kts 89°
2026-05-07 18:00 51.46805 -0.40770 1576 ft 182 kts 63°
2026-05-07 18:00 51.47616 -0.39050 1864 ft 205 kts 51°
2026-05-07 18:00 51.48570 -0.37181 2133 ft 229 kts 51°
2026-05-07 18:01 51.49614 -0.35113 2535 ft 253 kts 51°
2026-05-07 18:01 51.50742 -0.32871 3312 ft 261 kts 52°
2026-05-07 18:01 51.51881 -0.30595 4277 ft 263 kts 53°
2026-05-07 18:01 51.52739 -0.28009 5197 ft 265 kts 71°
2026-05-07 18:02 51.54212 -0.22540 5970 ft 269 kts 52°
2026-05-07 18:02 51.55579 -0.20508 6004 ft 269 kts 32°
2026-05-07 18:02 51.57287 -0.19290 6009 ft 269 kts 21°
2026-05-07 18:03 51.59026 -0.18171 6009 ft 271 kts 20°
2026-05-07 18:03 51.60831 -0.17269 6008 ft 271 kts 17°
2026-05-07 18:03 51.62612 -0.16412 6009 ft 271 kts 17°
2026-05-07 18:03 51.64423 -0.15558 6009 ft 271 kts 17°
2026-05-07 18:04 51.66235 -0.14717 6007 ft 271 kts 16°
2026-05-07 18:04 51.68053 -0.13913 6009 ft 271 kts 15°
2026-05-07 18:04 51.69877 -0.13130 6010 ft 271 kts 15°
2026-05-07 18:04 51.71685 -0.12264 6009 ft 271 kts 22°
2026-05-07 18:05 51.73297 -0.10769 6012 ft 270 kts 39°
2026-05-07 18:05 51.74569 -0.08526 6011 ft 270 kts 58°
2026-05-07 18:05 51.75337 -0.05780 6014 ft 270 kts 76°
2026-05-07 18:05 51.75621 -0.02748 6672 ft 274 kts 83°
2026-05-07 18:06 51.75868 0.00311 7537 ft 279 kts 84°
2026-05-07 18:06 51.76132 0.03415 8264 ft 286 kts 84°
2026-05-07 18:06 51.76405 0.06616 9092 ft 290 kts 84°
2026-05-07 18:06 51.76678 0.09870 9892 ft 295 kts 84°
2026-05-07 18:07 51.76954 0.13209 10408 ft 309 kts 84°
2026-05-07 18:07 51.77246 0.16782 10601 ft 333 kts 84°
2026-05-07 18:07 51.77557 0.20599 10861 ft 351 kts 84°
2026-05-07 18:07 51.77881 0.24544 11444 ft 357 kts 84°
2026-05-07 18:08 51.78207 0.28529 12114 ft 360 kts 84°
2026-05-07 18:08 51.78535 0.32556 12781 ft 363 kts 84°
2026-05-07 18:08 51.78857 0.36565 13462 ft 366 kts 84°
2026-05-07 18:08 51.79184 0.40658 14123 ft 369 kts 85°
2026-05-07 18:09 51.79514 0.44796 14695 ft 373 kts 84°
2026-05-07 18:09 51.79844 0.48967 15241 ft 377 kts 84°
2026-05-07 18:09 51.80176 0.53192 15764 ft 381 kts 84°
2026-05-07 18:09 51.80509 0.57465 16286 ft 385 kts 84°
2026-05-07 18:10 51.80844 0.61774 16854 ft 388 kts 84°
2026-05-07 18:10 51.81253 0.66104 17413 ft 392 kts 78°
2026-05-07 18:10 51.81914 0.70398 17980 ft 396 kts 77°
2026-05-07 18:10 51.82585 0.74732 18507 ft 400 kts 77°
2026-05-07 18:11 51.83252 0.79050 19013 ft 403 kts 77°
2026-05-07 18:11 51.83940 0.83456 19516 ft 406 kts 76°
2026-05-07 18:11 51.84698 0.87873 20017 ft 409 kts 74°
2026-05-07 18:11 51.85515 0.92303 20540 ft 412 kts 73°
2026-05-07 18:12 51.86360 0.96754 21042 ft 415 kts 73°
2026-05-07 18:12 51.87208 1.01226 21516 ft 418 kts 73°
2026-05-07 18:12 51.88049 1.05745 21976 ft 421 kts 73°
2026-05-07 18:12 51.88880 1.10302 22420 ft 424 kts 74°
2026-05-07 18:13 51.89710 1.14898 22861 ft 427 kts 74°
2026-05-07 18:13 51.90531 1.19466 23309 ft 430 kts 74°
2026-05-07 18:13 51.91366 1.24132 23717 ft 433 kts 74°
2026-05-07 18:13 51.92201 1.28830 24076 ft 436 kts 74°
2026-05-07 18:14 51.93038 1.33560 24453 ft 438 kts 74°
2026-05-07 18:14 51.93879 1.38317 24812 ft 440 kts 74°
2026-05-07 18:14 51.94725 1.43094 25167 ft 443 kts 74°
2026-05-07 18:14 51.95577 1.47902 25516 ft 445 kts 74°
2026-05-07 18:15 51.96432 1.52730 25890 ft 446 kts 74°
2026-05-07 18:15 51.97281 1.57518 26240 ft 449 kts 74°
2026-05-07 18:15 51.98151 1.62384 26601 ft 451 kts 74°
2026-05-07 18:15 51.99005 1.67293 26960 ft 453 kts 75°
2026-05-07 18:16 51.99827 1.72243 27080 ft 456 kts 76°
2026-05-07 18:16 52.00620 1.77239 27090 ft 457 kts 76°
2026-05-07 18:16 52.01389 1.82236 27089 ft 457 kts 76°
2026-05-07 18:16 52.02150 1.87263 27090 ft 458 kts 76°
2026-05-07 18:17 52.02907 1.92269 27091 ft 458 kts 76°
2026-05-07 18:17 52.03668 1.97280 27086 ft 456 kts 77°
2026-05-07 18:17 52.04429 2.02276 27090 ft 455 kts 76°
2026-05-07 18:17 52.05191 2.07267 27089 ft 455 kts 76°
2026-05-07 18:18 52.05942 2.12190 27087 ft 455 kts 76°
2026-05-07 18:18 52.06706 2.17179 27090 ft 455 kts 76°
2026-05-07 18:18 52.07467 2.22173 27090 ft 455 kts 77°
2026-05-07 18:18 52.08237 2.27161 27090 ft 455 kts 74°
2026-05-07 18:19 52.09386 2.31938 27091 ft 455 kts 66°
2026-05-07 18:19 52.10660 2.36653 27091 ft 455 kts 66°
2026-05-07 18:19 52.11937 2.41365 27091 ft 455 kts 66°
2026-05-07 18:19 52.13215 2.46079 27086 ft 455 kts 66°
2026-05-07 18:20 52.14492 2.50794 27089 ft 455 kts 66°
2026-05-07 18:20 52.15750 2.55448 27091 ft 455 kts 66°
2026-05-07 18:20 52.17021 2.60156 27094 ft 455 kts 66°
2026-05-07 18:20 52.18292 2.64888 27095 ft 455 kts 66°
2026-05-07 18:21 52.19554 2.69604 27095 ft 455 kts 66°
2026-05-07 18:21 52.20816 2.74332 27095 ft 455 kts 66°
2026-05-07 18:21 52.22074 2.79077 27095 ft 455 kts 67°
2026-05-07 18:21 52.23324 2.83802 27095 ft 455 kts 67°
2026-05-07 18:22 52.24577 2.88540 27091 ft 455 kts 67°
2026-05-07 18:22 52.25407 2.91682 27105 ft 454 kts 67°
2026-05-07 18:22 52.27079 2.98007 27105 ft 454 kts 67°
2026-05-07 18:22 52.28330 3.02741 27108 ft 453 kts 67°
2026-05-07 18:23 52.29557 3.07399 27110 ft 453 kts 67°
2026-05-07 18:23 52.30796 3.12121 27108 ft 452 kts 67°
2026-05-07 18:23 52.32033 3.16849 26970 ft 452 kts 67°
2026-05-07 18:23 52.33282 3.21631 25409 ft 465 kts 67°
2026-05-07 18:24 52.34571 3.26585 24046 ft 478 kts 67°
2026-05-07 18:24 52.35848 3.31500 23330 ft 457 kts 67°
2026-05-07 18:24 52.37064 3.36176 22495 ft 438 kts 67°
2026-05-07 18:24 52.38242 3.40723 21235 ft 431 kts 67°
2026-05-07 18:25 52.39402 3.45220 19955 ft 427 kts 67°
2026-05-07 18:25 52.40533 3.49614 18737 ft 422 kts 67°
2026-05-07 18:25 52.41668 3.54023 17420 ft 418 kts 67°
2026-05-07 18:25 52.42794 3.58391 16102 ft 414 kts 67°
2026-05-07 18:26 52.43909 3.62716 14841 ft 410 kts 67°
2026-05-07 18:26 52.45005 3.66992 13612 ft 405 kts 67°
2026-05-07 18:26 52.46083 3.71227 12270 ft 400 kts 67°
2026-05-07 18:26 52.47144 3.75402 11002 ft 394 kts 68°
2026-05-07 18:27 52.48185 3.79505 9923 ft 383 kts 68°
2026-05-07 18:27 52.49188 3.83447 9115 ft 366 kts 68°
2026-05-07 18:27 52.50147 3.87219 8323 ft 351 kts 68°
2026-05-07 18:27 52.50981 3.90907 7565 ft 339 kts 76°
2026-05-07 18:28 52.51389 3.94553 7197 ft 317 kts 86°
2026-05-07 18:28 52.51443 3.98022 7078 ft 291 kts 96°
2026-05-07 18:28 52.51206 4.01216 7092 ft 279 kts 103°
2026-05-07 18:28 52.50707 4.04266 7097 ft 276 kts 111°
2026-05-07 18:29 52.50010 4.07187 7108 ft 275 kts 113°
2026-05-07 18:29 52.49299 4.10099 7043 ft 275 kts 114°
2026-05-07 18:29 52.48589 4.13005 6896 ft 274 kts 114°
2026-05-07 18:29 52.47879 4.15903 6603 ft 273 kts 114°
2026-05-07 18:30 52.47173 4.18780 6281 ft 271 kts 114°
2026-05-07 18:30 52.46469 4.21645 5985 ft 269 kts 113°
2026-05-07 18:30 52.45770 4.24478 5662 ft 268 kts 113°
2026-05-07 18:30 52.45082 4.27264 5357 ft 267 kts 114°
2026-05-07 18:31 52.44391 4.30068 5121 ft 263 kts 114°
2026-05-07 18:31 52.43705 4.32856 4846 ft 264 kts 113°
2026-05-07 18:31 52.43020 4.35644 4473 ft 263 kts 113°
2026-05-07 18:31 52.42342 4.38397 4137 ft 259 kts 112°
2026-05-07 18:32 52.41670 4.41121 4096 ft 259 kts 112°
2026-05-07 18:32 52.40991 4.43853 4091 ft 258 kts 112°
2026-05-07 18:32 52.40315 4.46571 4086 ft 258 kts 112°
2026-05-07 18:32 52.39624 4.49284 4090 ft 258 kts 117°
2026-05-07 18:33 52.38484 4.51498 4080 ft 257 kts 146°
2026-05-07 18:33 52.36821 4.52504 4089 ft 258 kts 175°
2026-05-07 18:33 52.35090 4.52052 4082 ft 260 kts 204°
2026-05-07 18:33 52.33676 4.50233 4088 ft 262 kts 232°
2026-05-07 18:34 52.32750 4.47654 4082 ft 265 kts 242°
2026-05-07 18:34 52.31925 4.44964 4088 ft 265 kts 242°
2026-05-07 18:34 52.31109 4.42269 4085 ft 265 kts 243°
2026-05-07 18:34 52.30294 4.39578 4087 ft 264 kts 243°
2026-05-07 18:35 52.29475 4.36891 4079 ft 264 kts 243°
2026-05-07 18:35 52.28661 4.34193 4083 ft 265 kts 243°
2026-05-07 18:35 52.27852 4.31497 4087 ft 265 kts 243°
2026-05-07 18:35 52.27045 4.28791 4083 ft 265 kts 243°
2026-05-07 18:36 52.26233 4.26102 4082 ft 264 kts 242°
2026-05-07 18:36 52.25418 4.23414 4086 ft 264 kts 243°
2026-05-07 18:36 52.24612 4.20759 4083 ft 264 kts 242°
2026-05-07 18:36 52.23799 4.18068 4079 ft 264 kts 243°
2026-05-07 18:37 52.22922 4.15440 4082 ft 263 kts 231°
2026-05-07 18:37 52.21527 4.13585 4091 ft 260 kts 202°
2026-05-07 18:37 52.19772 4.13086 4087 ft 258 kts 173°
2026-05-07 18:37 52.18109 4.14051 4081 ft 256 kts 143°
2026-05-07 18:38 52.16965 4.16228 4080 ft 256 kts 114°
2026-05-07 18:38 52.16569 4.19037 3951 ft 255 kts 95°
2026-05-07 18:38 52.16469 4.21920 3623 ft 255 kts 92°
2026-05-07 18:38 52.16396 4.24794 3321 ft 254 kts 92°
2026-05-07 18:39 52.16318 4.27659 3018 ft 252 kts 92°
2026-05-07 18:39 52.16233 4.30500 2735 ft 250 kts 92°
2026-05-07 18:39 52.16147 4.33280 2445 ft 248 kts 92°
2026-05-07 18:39 52.16054 4.36083 2122 ft 248 kts 92°
2026-05-07 18:40 52.15993 4.38861 2002 ft 245 kts 84°
2026-05-07 18:40 52.16455 4.41522 2013 ft 246 kts 62°
2026-05-07 18:40 52.17331 4.43842 2008 ft 233 kts 58°
2026-05-07 18:40 52.18180 4.45995 2008 ft 220 kts 58°
2026-05-07 18:41 52.18994 4.48080 2010 ft 217 kts 58°
2026-05-07 18:41 52.19800 4.50154 2010 ft 216 kts 58°
2026-05-07 18:41 52.20593 4.52196 2008 ft 216 kts 58°
2026-05-07 18:41 52.21395 4.54264 2015 ft 216 kts 59°
2026-05-07 18:42 52.22205 4.56356 2011 ft 215 kts 58°
2026-05-07 18:42 52.22978 4.58349 2008 ft 204 kts 59°
2026-05-07 18:42 52.23712 4.60247 1894 ft 192 kts 59°
2026-05-07 18:42 52.24401 4.62029 1705 ft 180 kts 59°
2026-05-07 18:43 52.25043 4.63690 1457 ft 167 kts 58°
2026-05-07 18:43 52.25622 4.65189 1266 ft 145 kts 58°
2026-05-07 18:43 52.26142 4.66538 1049 ft 136 kts 58°
2026-05-07 18:43 52.26643 4.67834 833 ft 133 kts 57°
2026-05-07 18:44 52.27130 4.69098 662 ft 132 kts 57°
2026-05-07 18:44 52.27621 4.70374 507 ft 131 kts 56°
2026-05-07 18:44 52.28113 4.71653 327 ft 133 kts 56°
2026-05-07 18:44 52.28607 4.72928 160 ft 132 kts 57°
2026-05-07 18:45 52.29092 4.74196 16 ft 128 kts 57°
2026-05-07 18:45 52.29494 4.75241 -2 ft 85 kts 58°
2026-05-07 18:45 52.29731 4.75857 -3 ft 55 kts 58°
2026-05-07 18:45 52.29941 4.76396 -4 ft 49 kts 56°
2026-05-07 18:46 52.30120 4.76619 -1 ft 30 kts 28°
2026-05-07 18:46 52.30211 4.76699 -1 ft 0 kts 28°
2026-05-07 18:46 52.30212 4.76700 -1 ft 1 kts 28°
2026-05-07 18:46 52.30223 4.76708 -1 ft 0 kts 22°
2026-05-07 18:47 52.30234 4.76715 -1 ft 3 kts 22°
2026-05-07 18:47 52.30267 4.76739 -1 ft 7 kts 28°
2026-05-07 18:47 52.30306 4.76807 -1 ft 10 kts 53°
2026-05-07 18:47 52.30347 4.76909 -1 ft 12 kts 58°
2026-05-07 18:48 52.30402 4.77029 -1 ft 14 kts 30°
2026-05-07 18:48 52.30495 4.76983 -1 ft 16 kts 328°
2026-05-07 18:48 52.30586 4.76889 -1 ft 12 kts 328°
2026-05-07 18:48 52.30645 4.76904 -1 ft 0 kts 54°
2026-05-07 18:49 52.30652 4.76935 -1 ft 8 kts 75°
2026-05-07 18:49 52.30669 4.77020 -1 ft 6 kts 25°
2026-05-07 18:49 52.30702 4.77025 -1 ft 1 kts
2026-05-07 18:49 52.30713 4.77026 -1 ft 2 kts
2026-05-07 18:50 52.30718 4.77026 -1 ft 0 kts